SCP
0 0 0 0 1 5 4 0 0 3 4 4 3 2 1 2 2 1 2 2 2 2 2 2 2 2 2 1 1 1 1 2 2 1 1 1 0 0 1 0 0 0 0
0 0 0 0 1 5 6 3 2 3 3 3 3 3 2 3 2 2 2 4 3 3 3 2 2 3 2 2 2 2 2 1 1 1 1 1 0 1 1 0 0 0 0
0 0 0 0 0 9 8 8 6 4 1 3 5 5 4 2 3 3 3 5 4 6 5 4 4 4 3 2 2 2 2 2 1 1 1 1 0 0 0 0 0 0 0
0 0 0 0 0 5 9 10 8 7 7 7 6 4 5 5 3 4 5 6 6 5 5 5 5 4 2 2 1 0 0 1 1 1 1 1 0 0 0 0 0 0 0
0 0 0 0 0 2 7 9 12 11 7 6 7 5 4 6 9 9 8 6 6 5 4 4 3 3 2 1 1 1 1 1 1 1 1 1 1 1 0 0 0 0 0
0 0 0 0 0 1 3 6 8 7 7 6 4 5 3 2 5 6 4 6 4 4 4 3 2 2 2 1 1 1 1 1 1 1 1 1 1 1 0 0 0 0 0
0 0 0 0 0 0 0 1 4 7 8 5 6 4 2 2 2 2 4 3 3 3 2 2 2 2 2 1 1 1 1 1 1 1 1 1 1 1 1 1 0 0 0
0 0 0 0 0 0 0 0 1 5 8 6 6 4 5 5 3 4 4 4 3 2 2 2 1 1 1 1 1 1 0 0 0 0 0 1 1 1 1 0 1 0 0
0 0 0 0 0 0 0 0 0 1 6 6 5 6 7 6 5 3 3 2 2 2 1 1 0 0 0 0 0 0 0 0 0 0 0 0 1 0 0 0 0 0 0
0 0 0 0 0 0 0 0 0 2 7 7 7 7 4 2 1 1 1 1 1 1 0 0 0 0 0 0 0 0 0 0 0 0 0 0 0 0 0 0 0 0 0
0 0 0 0 0 0 0 1 5 8 7 6 4 2 2 1 1 1 1 0 0 0 0 0 0 0 0 0 0 0 0 0 0 0 0 0 0 0 0 0 0 0 0
5 4 0 0 0 3 5 6 7 6 4 3 1 1 1 0 0 0 0 0 0 0 0 0 0 0 0 0 0 0 0 0 0 0 0 0 0 0 0 0 0 0 0
5 5 5 4 4 5 6 5 3 3 2 1 0 0 0 0 0 0 0 0 0 0 0 0 0 0 0 0 0 0 0 0 0 0 0 0 0 0 0 0 0 0 0
4 4 4 4 3 3 3 2 1 0 0 0 0 0 0 0 0 0 0 0 0 0 0 0 0 0 0 0 0 0 0 0 0 0 0 0 0 0 0 0 0 0 0
3 3 3 4 3 2 1 0 0 0 0 0 0 0 0 0 0 0 0 0 0 0 0 0 0 0 0 0 0 0 0 0 0 0 0 0 0 0 0 0 0 0 0
1 2 2 1 1 0 0 0 0 0 0 0 0 0 0 0 0 0 0 0 0 0 0 0 0 0 0 0 0 0 0 0 0 0 0 0 0 0 0 0 0 0 0
1 1 1 1 0 0 0 0 0 0 0 0 0 0 0 0 0 0 0 0 0 0 0 0 0 0 0 0 0 0 0 0 0 0 0 0 0 0 0 0 0 0 0
0 0 0 0 0 0 0 0 0 0 0 0 0 0 0 0 0 0 0 0 0 0 0 0 0 0 0 0 0 0 0 0 0 0 0 0 0 0 0 0 0 0 0
0 0 0 0 0 0 0 0 0 0 0 0 0 0 0 0 0 0 0 0 0 0 0 0 0 0 0 0 0 0 0 0 0 0 0 0 0 0 0 0 0 0 0
0 0 0 0 0 0 0 0 0 0 0 0 0 0 0 0 0 0 0 0 0 0 0 0 0 0 0 0 0 0 0 0 0 0 0 0 0 0 0 0 0 0 0
0 0 0 0 0 0 0 0 0 0 0 0 0 0 0 0 0 0 0 0 0 0 0 0 0 0 0 0 0 0 0 0 0 0 0 0 0 0 0 0 0 0 0
0 0 0 0 0 0 0 0 0 0 0 0 0 0 0 0 0 0 0 0 0 0 0 0 0 0 0 0 0 0 0 0 0 0 0 0 0 0 0 0 0 0 -0
0 0 0 0 0 0 0 0 0 0 0 0 0 0 0 0 0 0 0 0 0 0 0 0 0 0 0 0 0 0 0 0 0 0 0 0 0 0 0 0 0 0 0
0 0 0 0 0 0 0 0 0 0 0 0 0 0 0 0 0 0 0 0 0 0 0 0 0 0 0 0 0 0 0 0 0 0 0 0 0 0 0 0 0 0 0
0 0 0 0 0 0 0 0 0 0 0 0 0 0 0 0 0 0 0 0 0 0 0 0 0 0 0 0 0 0 0 0 0 0 -0 0 0 0 0 0 0 0 0
0 0 0 0 0 -0 0 0 0 0 0 0 0 0 0 0 0 0 0 0 0 0 0 0 0 0 0 0 0 0 0 0 0 0 0 0 0 0 0 0 0 0 0
Wind_Speed_500mb
63 68 60 64 61 55 95 101 82 58 66 72 66 72 67 63 55 57 47 45 43 39 36 33 34 41 40 44 52 54 59 64 65 61 59 49 53 56 51 54 57 63 57
75 77 79 73 82 72 83 95 96 90 66 74 81 101 80 72 65 57 57 46 46 45 39 35 32 34 45 51 46 44 37 45 49 45 44 49 51 46 40 40 40 38 40
86 91 88 79 84 77 75 82 94 86 74 77 75 84 85 71 59 59 61 57 50 48 46 42 40 39 43 47 46 48 46 50 54 48 41 17 15 27 44 41 50 43 39
61 92 96 89 72 89 75 94 80 78 83 82 73 66 76 64 63 58 51 55 50 50 46 43 39 40 47 48 48 49 41 36 46 40 42 46 48 40 33 49 51 43 33
80 63 69 70 86 89 95 85 86 82 79 75 73 71 69 66 56 55 60 59 61 54 52 49 46 46 47 39 42 39 35 37 36 36 41 40 41 37 42 51 50 45 40
80 77 79 77 47 92 98 95 92 86 84 79 72 72 64 59 59 53 58 54 46 44 42 41 43 36 32 27 26 30 31 29 31 31 32 34 38 43 40 44 47 44 54
84 91 86 82 56 95 108 103 96 88 88 79 71 65 62 69 64 57 56 46 41 37 33 34 33 30 23 22 23 26 24 24 27 28 31 30 32 34 37 42 52 51 53
78 97 98 83 67 80 97 100 93 87 82 75 76 68 58 68 54 46 36 39 35 33 35 35 29 24 20 20 17 17 20 25 28 29 33 37 41 43 42 41 37 42 45
87 89 104 82 76 72 96 99 95 81 84 81 72 73 62 53 47 46 44 42 40 40 35 31 27 23 24 20 22 27 20 11 15 20 22 22 25 27 28 26 28 31 33
91 92 91 90 83 75 85 98 92 87 81 73 65 64 60 53 56 53 47 41 39 34 33 27 21 23 21 15 10 4 1 4 5 11 14 13 17 18 18 19 18 17 24
68 87 95 93 86 81 77 100 96 84 73 68 65 68 66 65 55 53 48 43 38 30 25 20 16 12 8 7 7 10 10 16 19 17 17 21 26 26 27 26 26 24 26
41 40 56 81 86 88 87 93 91 83 74 71 74 75 69 64 64 56 50 45 44 38 32 27 20 12 7 9 13 16 19 22 24 26 27 27 30 33 32 33 33 36 36
58 49 47 68 81 89 96 100 95 91 80 73 72 68 68 65 62 60 57 49 42 37 30 24 18 13 12 15 20 25 25 25 27 29 31 29 27 31 31 33 38 42 45
67 65 63 72 80 88 99 98 92 85 80 74 72 68 66 67 65 60 53 47 39 30 21 16 11 12 17 17 22 28 33 37 38 34 22 19 22 25 27 35 41 44 43
43 71 71 63 79 93 91 91 90 89 85 82 77 73 69 65 61 55 47 36 28 21 13 9 13 16 19 24 28 35 41 40 31 12 7 13 16 22 29 31 41 45 44
40 54 83 81 89 105 101 98 94 88 88 83 78 71 63 57 51 44 36 27 19 10 7 11 14 19 25 29 32 30 22 17 15 11 10 18 23 31 39 42 34 34 30
35 44 61 75 104 106 103 101 93 84 82 79 70 63 56 50 41 32 24 17 10 5 7 9 14 16 19 21 19 16 14 18 16 10 7 17 27 27 30 38 37 31 18
53 48 82 85 96 101 104 97 87 82 79 71 65 59 47 38 29 21 14 9 6 3 3 5 8 11 12 14 17 16 15 20 17 17 14 17 22 29 37 40 29 24 17
74 48 108 101 113 98 101 95 89 84 75 67 56 45 36 30 21 16 13 13 9 7 5 4 6 9 11 12 11 12 17 13 7 15 17 18 23 32 36 30 31 25 17
72 61 94 95 95 85 85 86 82 73 59 49 40 31 24 19 17 15 14 16 12 11 8 11 11 12 13 11 13 15 15 12 3 8 10 17 26 30 27 30 33 33 36
82 92 91 91 88 81 80 73 62 53 43 36 29 24 19 16 14 15 15 14 16 17 17 20 20 20 17 18 20 18 18 17 12 8 9 16 18 23 26 27 28 31 35
82 81 84 77 68 63 64 62 53 41 32 29 29 22 15 13 11 20 26 28 28 29 25 19 19 17 19 24 25 22 20 17 18 21 21 20 18 22 23 20 23 32 37
78 79 80 74 62 56 52 53 40 30 29 23 20 18 16 19 26 25 33 33 33 27 22 15 12 6 13 19 18 20 24 21 28 26 23 18 14 14 20 27 33 36 41
71 66 65 63 54 45 41 39 29 21 19 17 16 14 9 14 20 22 21 25 28 29 23 17 14 2 9 13 18 22 24 25 23 14 11 12 20 18 24 33 40 43 44
52 50 49 45 40 32 26 22 17 11 7 3 4 4 12 16 17 19 22 22 22 17 14 15 11 11 13 17 20 20 25 19 16 12 13 17 29 33 42 50 50 51 52
47 42 35 28 23 18 17 14 12 12 12 13 13 10 15 14 20 21 25 24 18 16 18 17 16 19 21 19 19 20 18 19 17 23 34 40 44 49 55 58 59 62 65
Wind_Direction_500mb
238 242 240 235 238 212 196 199 201 213 202 204 212 207 208 206 209 212 214 231 238 240 241 240 247 233 227 244 248 255 260 263 263 267 268 272 268 272 276 279 279 283 288
235 236 238 234 228 224 201 199 207 204 203 207 212 213 210 208 211 212 214 220 236 244 248 249 244 244 242 246 258 266 268 276 270 270 277 284 288 289 293 293 288 291 294
234 234 225 223 225 215 195 198 189 208 208 197 206 209 215 218 218 219 217 218 227 238 241 246 258 263 253 249 249 250 249 262 272 273 271 270 261 297 298 296 297 299 306
239 220 218 224 228 217 196 189 190 196 204 206 209 205 204 204 212 218 218 216 225 229 236 240 258 259 261 253 253 276 272 273 274 275 271 278 279 287 286 297 303 305 297
227 218 211 221 233 219 209 201 194 197 205 211 214 212 210 208 207 212 214 220 220 224 232 238 248 254 260 254 258 263 274 270 271 277 275 274 280 285 293 294 301 298 287
218 217 224 228 243 217 208 206 202 203 203 206 209 211 204 207 208 201 205 211 216 225 231 243 251 246 253 253 253 256 259 270 273 277 281 284 292 299 305 300 298 306 299
214 214 217 216 228 211 203 200 200 205 208 205 209 208 204 214 216 215 221 229 233 224 228 235 237 232 229 233 249 255 264 277 282 286 288 291 296 300 300 295 295 301 299
213 203 207 215 215 209 200 197 198 200 206 205 205 203 208 216 218 216 201 203 198 195 210 213 216 227 237 259 257 264 270 266 276 287 292 295 293 293 294 302 308 308 307
216 203 205 207 209 205 200 197 196 201 205 207 210 201 205 204 192 188 188 183 181 191 204 208 211 223 247 243 256 273 283 298 295 299 301 296 294 298 300 307 310 312 311
208 199 202 205 212 207 201 198 197 201 199 196 195 189 187 181 184 189 184 185 186 191 198 198 210 230 245 248 243 212 352 283 296 297 298 308 315 316 318 328 326 322 330
184 193 199 204 204 209 203 195 191 188 178 177 181 186 186 189 185 180 182 175 172 173 166 160 160 158 137 138 185 218 225 270 278 273 281 286 291 290 288 296 301 300 307
137 149 180 196 195 189 170 165 168 173 172 175 173 170 170 175 174 173 162 157 150 148 147 151 159 168 202 244 258 277 287 285 289 298 295 295 300 302 303 298 296 295 296
101 114 131 143 148 141 145 157 162 165 164 168 173 164 162 167 159 157 157 158 158 158 158 168 180 195 235 266 281 284 285 293 301 304 306 306 304 307 303 303 302 303 304
111 111 121 133 142 138 143 154 153 155 162 165 164 162 156 154 155 157 155 155 154 154 163 184 204 254 261 274 278 283 291 295 300 306 303 303 304 296 303 302 305 307 310
125 127 124 134 132 129 141 139 142 148 155 156 153 150 151 152 150 150 150 151 154 158 169 232 257 272 291 296 299 303 307 311 312 297 288 321 322 326 322 317 311 317 322
121 134 136 134 126 125 125 126 132 135 145 144 146 147 147 147 146 147 146 150 151 159 216 255 279 294 307 316 325 329 344 359 14 31 10 325 307 308 309 315 324 331 329
119 125 128 133 121 121 124 124 128 134 134 134 134 137 140 142 143 143 146 147 147 153 243 287 304 323 331 345 356 15 9 13 12 350 331 312 324 334 342 340 334 328 312
90 97 108 93 111 113 114 116 121 121 119 123 131 135 140 141 140 140 139 128 129 190 258 329 353 11 17 46 44 52 34 51 46 30 12 337 332 334 333 339 350 2 2
86 78 110 113 106 113 118 122 126 124 130 134 139 144 146 143 143 141 133 140 161 149 109 70 40 62 69 61 49 30 10 27 39 31 12 347 335 341 338 349 349 1 10
133 117 101 113 117 117 123 126 126 132 132 136 136 140 136 139 144 135 135 147 155 133 123 116 89 88 78 58 26 13 16 28 103 50 0 340 336 333 353 358 2 1 3
113 121 120 117 119 129 132 122 123 121 124 121 122 126 117 120 127 135 143 163 145 137 112 88 71 54 39 34 24 17 16 18 8 36 331 334 351 9 9 6 360 349 340
114 114 112 112 117 121 123 115 112 114 111 110 121 128 118 107 139 138 128 115 106 97 97 90 72 32 11 17 16 17 14 7 22 31 22 20 23 16 13 349 338 328 327
117 117 116 114 111 111 112 107 102 103 98 106 110 117 125 130 122 122 136 129 116 117 129 102 76 31 357 6 21 29 25 47 63 56 47 36 9 350 338 331 329 329 335
121 121 118 115 112 109 105 101 100 84 84 95 124 134 130 135 148 149 140 142 144 149 153 149 153 247 13 39 42 42 49 65 72 60 31 354 345 342 340 343 350 352 355
113 114 113 111 108 105 105 109 125 135 118 160 155 151 124 143 150 142 135 143 145 136 143 137 115 78 62 51 43 47 57 53 42 10 342 10 22 16 16 19 22 20 15
110 102 99 111 115 137 144 147 162 171 167 156 176 148 127 122 126 115 117 120 125 135 131 104 83 67 56 48 49 58 46 36 36 40 38 36 40 38 30 24 19 16 11
Wind_Speed_850mb
63 68 60 64 61 55 95 101 82 58 66 72 66 72 67 63 55 57 47 45 43 39 36 33 34 41 40 44 52 54 59 64 65 61 59 49 53 56 51 54 57 63 57
75 77 79 73 82 72 83 95 96 90 66 74 81 101 80 72 65 57 57 46 46 45 39 35 32 34 45 51 46 44 37 45 49 45 44 49 51 46 40 40 40 38 40
86 91 88 79 84 77 75 82 94 86 74 77 75 84 85 71 59 59 61 57 50 48 46 42 40 39 43 47 46 48 46 50 54 48 41 17 15 27 44 41 50 43 39
61 92 96 89 72 89 75 94 80 78 83 82 73 66 76 64 63 58 51 55 50 50 46 43 39 40 47 48 48 49 41 36 46 40 42 46 48 40 33 49 51 43 33
80 63 69 70 86 89 95 85 86 82 79 75 73 71 69 66 56 55 60 59 61 54 52 49 46 46 47 39 42 39 35 37 36 36 41 40 41 37 42 51 50 45 40
80 77 79 77 47 92 98 95 92 86 84 79 72 72 64 59 59 53 58 54 46 44 42 41 43 36 32 27 26 30 31 29 31 31 32 34 38 43 40 44 47 44 54
84 91 86 82 56 95 108 103 96 88 88 79 71 65 62 69 64 57 56 46 41 37 33 34 33 30 23 22 23 26 24 24 27 28 31 30 32 34 37 42 52 51 53
78 97 98 83 67 80 97 100 93 87 82 75 76 68 58 68 54 46 36 39 35 33 35 35 29 24 20 20 17 17 20 25 28 29 33 37 41 43 42 41 37 42 45
87 89 104 82 76 72 96 99 95 81 84 81 72 73 62 53 47 46 44 42 40 40 35 31 27 23 24 20 22 27 20 11 15 20 22 22 25 27 28 26 28 31 33
91 92 91 90 83 75 85 98 92 87 81 73 65 64 60 53 56 53 47 41 39 34 33 27 21 23 21 15 10 4 1 4 5 11 14 13 17 18 18 19 18 17 24
68 87 95 93 86 81 77 100 96 84 73 68 65 68 66 65 55 53 48 43 38 30 25 20 16 12 8 7 7 10 10 16 19 17 17 21 26 26 27 26 26 24 26
41 40 56 81 86 88 87 93 91 83 74 71 74 75 69 64 64 56 50 45 44 38 32 27 20 12 7 9 13 16 19 22 24 26 27 27 30 33 32 33 33 36 36
58 49 47 68 81 89 96 100 95 91 80 73 72 68 68 65 62 60 57 49 42 37 30 24 18 13 12 15 20 25 25 25 27 29 31 29 27 31 31 33 38 42 45
67 65 63 72 80 88 99 98 92 85 80 74 72 68 66 67 65 60 53 47 39 30 21 16 11 12 17 17 22 28 33 37 38 34 22 19 22 25 27 35 41 44 43
43 71 71 63 79 93 91 91 90 89 85 82 77 73 69 65 61 55 47 36 28 21 13 9 13 16 19 24 28 35 41 40 31 12 7 13 16 22 29 31 41 45 44
40 54 83 81 89 105 101 98 94 88 88 83 78 71 63 57 51 44 36 27 19 10 7 11 14 19 25 29 32 30 22 17 15 11 10 18 23 31 39 42 34 34 30
35 44 61 75 104 106 103 101 93 84 82 79 70 63 56 50 41 32 24 17 10 5 7 9 14 16 19 21 19 16 14 18 16 10 7 17 27 27 30 38 37 31 18
53 48 82 85 96 101 104 97 87 82 79 71 65 59 47 38 29 21 14 9 6 3 3 5 8 11 12 14 17 16 15 20 17 17 14 17 22 29 37 40 29 24 17
74 48 108 101 113 98 101 95 89 84 75 67 56 45 36 30 21 16 13 13 9 7 5 4 6 9 11 12 11 12 17 13 7 15 17 18 23 32 36 30 31 25 17
72 61 94 95 95 85 85 86 82 73 59 49 40 31 24 19 17 15 14 16 12 11 8 11 11 12 13 11 13 15 15 12 3 8 10 17 26 30 27 30 33 33 36
82 92 91 91 88 81 80 73 62 53 43 36 29 24 19 16 14 15 15 14 16 17 17 20 20 20 17 18 20 18 18 17 12 8 9 16 18 23 26 27 28 31 35
82 81 84 77 68 63 64 62 53 41 32 29 29 22 15 13 11 20 26 28 28 29 25 19 19 17 19 24 25 22 20 17 18 21 21 20 18 22 23 20 23 32 37
78 79 80 74 62 56 52 53 40 30 29 23 20 18 16 19 26 25 33 33 33 27 22 15 12 6 13 19 18 20 24 21 28 26 23 18 14 14 20 27 33 36 41
71 66 65 63 54 45 41 39 29 21 19 17 16 14 9 14 20 22 21 25 28 29 23 17 14 2 9 13 18 22 24 25 23 14 11 12 20 18 24 33 40 43 44
52 50 49 45 40 32 26 22 17 11 7 3 4 4 12 16 17 19 22 22 22 17 14 15 11 11 13 17 20 20 25 19 16 12 13 17 29 33 42 50 50 51 52
47 42 35 28 23 18 17 14 12 12 12 13 13 10 15 14 20 21 25 24 18 16 18 17 16 19 21 19 19 20 18 19 17 23 34 40 44 49 55 58 59 62 65
Wind_Direction_850mb
238 242 240 235 238 212 196 199 201 213 202 204 212 207 208 206 209 212 214 231 238 240 241 240 247 233 227 244 248 255 260 263 263 267 268 272 268 272 276 279 279 283 288
235 236 238 234 228 224 201 199 207 204 203 207 212 213 210 208 211 212 214 220 236 244 248 249 244 244 242 246 258 266 268 276 270 270 277 284 288 289 293 293 288 291 294
234 234 225 223 225 215 195 198 189 208 208 197 206 209 215 218 218 219 217 218 227 238 241 246 258 263 253 249 249 250 249 262 272 273 271 270 261 297 298 296 297 299 306
239 220 218 224 228 217 196 189 190 196 204 206 209 205 204 204 212 218 218 216 225 229 236 240 258 259 261 253 253 276 272 273 274 275 271 278 279 287 286 297 303 305 297
227 218 211 221 233 219 209 201 194 197 205 211 214 212 210 208 207 212 214 220 220 224 232 238 248 254 260 254 258 263 274 270 271 277 275 274 280 285 293 294 301 298 287
218 217 224 228 243 217 208 206 202 203 203 206 209 211 204 207 208 201 205 211 216 225 231 243 251 246 253 253 253 256 259 270 273 277 281 284 292 299 305 300 298 306 299
214 214 217 216 228 211 203 200 200 205 208 205 209 208 204 214 216 215 221 229 233 224 228 235 237 232 229 233 249 255 264 277 282 286 288 291 296 300 300 295 295 301 299
213 203 207 215 215 209 200 197 198 200 206 205 205 203 208 216 218 216 201 203 198 195 210 213 216 227 237 259 257 264 270 266 276 287 292 295 293 293 294 302 308 308 307
216 203 205 207 209 205 200 197 196 201 205 207 210 201 205 204 192 188 188 183 181 191 204 208 211 223 247 243 256 273 283 298 295 299 301 296 294 298 300 307 310 312 311
208 199 202 205 212 207 201 198 197 201 199 196 195 189 187 181 184 189 184 185 186 191 198 198 210 230 245 248 243 212 352 283 296 297 298 308 315 316 318 328 326 322 330
184 193 199 204 204 209 203 195 191 188 178 177 181 186 186 189 185 180 182 175 172 173 166 160 160 158 137 138 185 218 225 270 278 273 281 286 291 290 288 296 301 300 307
137 149 180 196 195 189 170 165 168 173 172 175 173 170 170 175 174 173 162 157 150 148 147 151 159 168 202 244 258 277 287 285 289 298 295 295 300 302 303 298 296 295 296
101 114 131 143 148 141 145 157 162 165 164 168 173 164 162 167 159 157 157 158 158 158 158 168 180 195 235 266 281 284 285 293 301 304 306 306 304 307 303 303 302 303 304
111 111 121 133 142 138 143 154 153 155 162 165 164 162 156 154 155 157 155 155 154 154 163 184 204 254 261 274 278 283 291 295 300 306 303 303 304 296 303 302 305 307 310
125 127 124 134 132 129 141 139 142 148 155 156 153 150 151 152 150 150 150 151 154 158 169 232 257 272 291 296 299 303 307 311 312 297 288 321 322 326 322 317 311 317 322
121 134 136 134 126 125 125 126 132 135 145 144 146 147 147 147 146 147 146 150 151 159 216 255 279 294 307 316 325 329 344 359 14 31 10 325 307 308 309 315 324 331 329
119 125 128 133 121 121 124 124 128 134 134 134 134 137 140 142 143 143 146 147 147 153 243 287 304 323 331 345 356 15 9 13 12 350 331 312 324 334 342 340 334 328 312
90 97 108 93 111 113 114 116 121 121 119 123 131 135 140 141 140 140 139 128 129 190 258 329 353 11 17 46 44 52 34 51 46 30 12 337 332 334 333 339 350 2 2
86 78 110 113 106 113 118 122 126 124 130 134 139 144 146 143 143 141 133 140 161 149 109 70 40 62 69 61 49 30 10 27 39 31 12 347 335 341 338 349 349 1 10
133 117 101 113 117 117 123 126 126 132 132 136 136 140 136 139 144 135 135 147 155 133 123 116 89 88 78 58 26 13 16 28 103 50 0 340 336 333 353 358 2 1 3
113 121 120 117 119 129 132 122 123 121 124 121 122 126 117 120 127 135 143 163 145 137 112 88 71 54 39 34 24 17 16 18 8 36 331 334 351 9 9 6 360 349 340
114 114 112 112 117 121 123 115 112 114 111 110 121 128 118 107 139 138 128 115 106 97 97 90 72 32 11 17 16 17 14 7 22 31 22 20 23 16 13 349 338 328 327
117 117 116 114 111 111 112 107 102 103 98 106 110 117 125 130 122 122 136 129 116 117 129 102 76 31 357 6 21 29 25 47 63 56 47 36 9 350 338 331 329 329 335
121 121 118 115 112 109 105 101 100 84 84 95 124 134 130 135 148 149 140 142 144 149 153 149 153 247 13 39 42 42 49 65 72 60 31 354 345 342 340 343 350 352 355
113 114 113 111 108 105 105 109 125 135 118 160 155 151 124 143 150 142 135 143 145 136 143 137 115 78 62 51 43 47 57 53 42 10 342 10 22 16 16 19 22 20 15
110 102 99 111 115 137 144 147 162 171 167 156 176 148 127 122 126 115 117 120 125 135 131 104 83 67 56 48 49 58 46 36 36 40 38 36 40 38 30 24 19 16 11